Time,TemperatureF,DewpointF,PressureIn,WindDirection,WindDirectionDegrees,WindSpeedMPH,WindSpeedGustMPH,Humidity,HourlyPrecipIn,Conditions,Clouds,dailyrainin,SoftwareType,DateUTC
2013-05-28 00:02:00,74.3,66.0,29.64,West,280,3.7,8.0,78,0.00,,,1.71,TxWx,2013-05-28 05:02:00,
2013-05-28 00:07:00,74.1,67.0,29.64,SSW,212,4.3,9.9,78,0.00,,,1.71,TxWx,2013-05-28 05:07:00,
2013-05-28 00:12:00,74.2,67.0,29.64,NW,325,1.9,5.0,78,0.00,,,1.71,TxWx,2013-05-28 05:12:00,
2013-05-28 00:18:00,74.0,67.0,29.63,West,280,3.7,5.6,78,0.00,,,1.71,TxWx,2013-05-28 05:18:00,
2013-05-28 00:23:00,73.9,67.0,29.63,ENE,77,1.9,13.0,78,0.00,,,1.71,TxWx,2013-05-28 05:23:00,
2013-05-28 00:28:00,73.8,67.0,29.63,SE,145,3.1,5.6,78,0.00,,,1.71,TxWx,2013-05-28 05:28:00,
2013-05-28 00:34:00,73.7,67.0,29.63,SSW,212,5.0,11.8,79,0.00,,,1.71,TxWx,2013-05-28 05:34:00,
2013-05-28 00:39:00,73.6,67.0,29.62,NNW,347,3.7,6.2,79,0.00,,,1.71,TxWx,2013-05-28 05:39:00,
2013-05-28 00:45:00,73.5,67.0,29.62,SSW,212,1.9,3.1,79,0.00,,,1.71,TxWx,2013-05-28 05:45:00,
2013-05-28 00:50:00,73.3,66.0,29.62,SSE,167,3.7,8.0,80,0.00,,,1.71,TxWx,2013-05-28 05:50:00,
2013-05-28 00:56:00,73.3,66.0,29.62,West,280,2.5,5.6,80,0.00,,,1.71,TxWx,2013-05-28 05:56:00,
2013-05-28 01:01:00,73.4,66.0,29.62,WSW,257,2.5,6.2,80,0.00,,,1.71,TxWx,2013-05-28 06:01:00,
2013-05-28 01:06:00,73.2,66.0,29.62,SSE,167,3.1,6.8,80,0.00,,,0.00,TxWx,2013-05-28 06:06:00,
2013-05-28 01:11:00,73.3,66.0,29.62,SSW,212,3.1,6.8,80,0.00,,,0.00,TxWx,2013-05-28 06:11:00,
2013-05-28 01:16:00,73.1,66.0,29.62,WSW,257,2.5,7.4,80,0.00,,,0.00,TxWx,2013-05-28 06:16:00,
2013-05-28 01:22:00,73.0,66.0,29.62,SSW,212,1.9,4.3,80,0.00,,,0.00,TxWx,2013-05-28 06:22:00,
2013-05-28 01:27:00,72.9,67.0,29.63,South,190,6.2,6.2,81,0.00,,,0.00,TxWx,2013-05-28 06:27:00,
2013-05-28 01:32:00,72.8,67.0,29.63,West,280,4.3,8.0,81,0.00,,,0.00,TxWx,2013-05-28 06:32:00,
2013-05-28 01:38:00,72.8,67.0,29.64,East,100,3.7,8.7,81,0.00,,,0.00,TxWx,2013-05-28 06:38:00,
2013-05-28 01:43:00,73.0,67.0,29.64,SE,145,1.9,7.4,81,0.00,,,0.00,TxWx,2013-05-28 06:43:00,
2013-05-28 01:48:00,73.0,67.0,29.64,SSW,212,3.7,6.2,81,0.00,,,0.00,TxWx,2013-05-28 06:48:00,
2013-05-28 01:53:00,73.1,67.0,29.64,WSW,257,3.1,3.7,81,0.00,,,0.00,TxWx,2013-05-28 06:53:00,
2013-05-28 01:59:00,73.1,66.0,29.64,SSE,167,3.7,8.7,80,0.00,,,0.00,TxWx,2013-05-28 06:59:00,
2013-05-28 02:04:00,73.3,67.0,29.64,WNW,302,3.1,5.0,81,0.00,,,0.00,TxWx,2013-05-28 07:04:00,
2013-05-28 02:09:00,73.2,67.0,29.65,SW,235,2.5,11.8,81,0.00,,,0.00,TxWx,2013-05-28 07:09:00,
2013-05-28 02:15:00,73.3,67.0,29.65,SW,235,1.2,6.2,81,0.00,,,0.00,TxWx,2013-05-28 07:15:00,
2013-05-28 02:20:00,73.3,67.0,29.65,SSE,167,4.3,6.2,81,0.00,,,0.00,TxWx,2013-05-28 07:20:00,
2013-05-28 02:25:00,73.2,67.0,29.65,NW,325,1.2,3.1,81,0.00,,,0.00,TxWx,2013-05-28 07:25:00,
2013-05-28 02:30:00,73.0,67.0,29.66,West,280,1.9,2.5,82,0.00,,,0.00,TxWx,2013-05-28 07:30:00,
2013-05-28 02:36:00,72.8,67.0,29.66,SE,145,2.5,6.2,82,0.00,,,0.00,TxWx,2013-05-28 07:36:00,
2013-05-28 02:41:00,72.8,67.0,29.66,West,280,2.5,5.0,82,0.00,,,0.00,TxWx,2013-05-28 07:41:00,
2013-05-28 02:47:00,72.8,67.0,29.66,WSW,257,2.5,3.1,83,0.00,,,0.00,TxWx,2013-05-28 07:47:00,
2013-05-28 02:52:00,72.7,67.0,29.66,NNE,32,1.2,3.7,83,0.00,,,0.00,TxWx,2013-05-28 07:52:00,
2013-05-28 02:57:00,72.6,67.0,29.66,West,280,1.9,2.5,83,0.00,,,0.00,TxWx,2013-05-28 07:57:00,
2013-05-28 03:03:00,72.5,67.0,29.67,South,190,4.3,4.3,83,0.00,,,0.00,TxWx,2013-05-28 08:03:00,
2013-05-28 03:08:00,72.3,67.0,29.66,SE,145,4.3,9.9,84,0.00,,,0.00,TxWx,2013-05-28 08:08:00,
2013-05-28 03:13:00,72.2,67.0,29.66,WSW,257,3.7,5.6,84,0.00,,,0.00,TxWx,2013-05-28 08:13:00,
2013-05-28 03:18:00,72.1,67.0,29.66,WNW,302,1.9,3.1,84,0.00,,,0.00,TxWx,2013-05-28 08:18:00,
2013-05-28 03:24:00,72.1,67.0,29.67,West,280,1.2,1.2,85,0.00,,,0.00,TxWx,2013-05-28 08:24:00,
2013-05-28 03:29:00,72.1,67.0,29.67,SW,235,1.2,2.5,85,0.00,,,0.00,TxWx,2013-05-28 08:29:00,
2013-05-28 03:35:00,72.0,67.0,29.67,NNE,32,0.6,3.7,85,0.00,,,0.00,TxWx,2013-05-28 08:35:00,
2013-05-28 03:40:00,71.9,67.0,29.66,NW,325,1.9,5.0,85,0.00,,,0.00,TxWx,2013-05-28 08:40:00,
2013-05-28 03:45:00,72.0,67.0,29.67,ESE,122,1.2,1.2,85,0.00,,,0.00,TxWx,2013-05-28 08:45:00,
2013-05-28 03:51:00,71.9,67.0,29.66,West,280,2.5,6.2,85,0.00,,,0.00,TxWx,2013-05-28 08:51:00,
2013-05-28 03:56:00,71.9,67.0,29.65,SW,235,1.9,2.5,85,0.00,,,0.00,TxWx,2013-05-28 08:56:00,
2013-05-28 04:02:00,71.7,67.0,29.65,SSW,212,2.5,4.3,85,0.00,,,0.00,TxWx,2013-05-28 09:02:00,
2013-05-28 04:07:00,71.7,67.0,29.66,SSW,212,1.9,6.8,85,0.00,,,0.00,TxWx,2013-05-28 09:07:00,
2013-05-28 04:12:00,71.7,67.0,29.66,WNW,302,1.2,4.3,85,0.00,,,0.00,TxWx,2013-05-28 09:12:00,
2013-05-28 04:17:00,71.6,67.0,29.65,West,280,3.1,3.7,86,0.00,,,0.00,TxWx,2013-05-28 09:17:00,
2013-05-28 04:23:00,71.5,67.0,29.65,WSW,257,1.9,3.1,86,0.00,,,0.00,TxWx,2013-05-28 09:23:00,
2013-05-28 04:28:00,71.5,66.0,29.65,WSW,257,3.7,5.6,86,0.00,,,0.00,TxWx,2013-05-28 09:28:00,
2013-05-28 04:33:00,71.5,66.0,29.65,SW,235,3.1,6.2,86,0.00,,,0.00,TxWx,2013-05-28 09:33:00,
2013-05-28 04:38:00,71.4,66.0,29.65,SW,235,1.9,4.3,86,0.00,,,0.00,TxWx,2013-05-28 09:38:00,
2013-05-28 04:44:00,71.3,66.0,29.65,NNW,347,0.6,5.0,86,0.00,,,0.00,TxWx,2013-05-28 09:44:00,
2013-05-28 04:50:00,71.2,67.0,29.65,SW,235,1.2,3.1,86,0.00,,,0.00,TxWx,2013-05-28 09:50:00,
2013-05-28 04:55:00,71.2,67.0,29.66,SE,145,1.2,2.5,86,0.00,,,0.00,TxWx,2013-05-28 09:55:00,
2013-05-28 05:00:00,71.2,67.0,29.66,SSW,212,1.2,2.5,86,0.00,,,0.00,TxWx,2013-05-28 10:00:00,
2013-05-28 05:06:00,71.0,67.0,29.65,SW,235,3.1,3.7,87,0.00,,,0.00,TxWx,2013-05-28 10:06:00,
2013-05-28 05:11:00,71.0,67.0,29.65,SSW,212,3.7,5.6,86,0.00,,,0.00,TxWx,2013-05-28 10:11:00,
2013-05-28 05:16:00,70.9,67.0,29.66,NE,55,0.6,1.9,87,0.00,,,0.00,TxWx,2013-05-28 10:16:00,
2013-05-28 05:21:00,70.8,67.0,29.66,North,10,2.5,3.1,87,0.00,,,0.00,TxWx,2013-05-28 10:21:00,
2013-05-28 05:27:00,70.8,67.0,29.66,North,10,0.0,1.2,87,0.00,,,0.00,TxWx,2013-05-28 10:27:00,
2013-05-28 05:32:00,70.6,67.0,29.67,SSW,212,1.2,3.1,87,0.00,,,0.00,TxWx,2013-05-28 10:32:00,
2013-05-28 05:37:00,70.5,67.0,29.67,ENE,77,0.6,3.1,87,0.00,,,0.00,TxWx,2013-05-28 10:37:00,
2013-05-28 05:43:00,70.4,66.0,29.67,WNW,302,0.6,1.2,87,0.00,,,0.00,TxWx,2013-05-28 10:43:00,
2013-05-28 05:48:00,70.2,66.0,29.67,NE,55,1.2,2.5,88,0.00,,,0.00,TxWx,2013-05-28 10:48:00,
2013-05-28 05:53:00,70.1,66.0,29.67,West,280,1.9,1.9,88,0.00,,,0.00,TxWx,2013-05-28 10:53:00,
2013-05-28 05:58:00,70.0,66.0,29.67,NNE,32,0.0,1.2,89,0.00,,,0.00,TxWx,2013-05-28 10:58:00,
2013-05-28 06:04:00,69.9,66.0,29.67,NNW,347,0.6,1.2,89,0.00,,,0.00,TxWx,2013-05-28 11:04:00,
2013-05-28 06:09:00,69.8,67.0,29.67,NNW,347,0.0,1.2,89,0.00,,,0.00,TxWx,2013-05-28 11:09:00,
2013-05-28 06:15:00,69.7,67.0,29.67,SW,235,1.2,1.2,89,0.00,,,0.00,TxWx,2013-05-28 11:15:00,
2013-05-28 06:20:00,69.6,67.0,29.67,SSE,167,1.2,3.1,89,0.00,,,0.00,TxWx,2013-05-28 11:20:00,
2013-05-28 06:25:00,69.6,67.0,29.67,WNW,302,0.6,1.2,90,0.00,,,0.00,TxWx,2013-05-28 11:25:00,
2013-05-28 06:31:00,69.5,67.0,29.67,SSW,212,1.2,2.5,90,0.00,,,0.00,TxWx,2013-05-28 11:31:00,
2013-05-28 06:36:00,69.5,67.0,29.67,WNW,302,1.2,1.9,90,0.00,,,0.00,TxWx,2013-05-28 11:36:00,
2013-05-28 06:41:00,69.6,67.0,29.68,South,190,1.9,3.1,90,0.00,,,0.00,TxWx,2013-05-28 11:41:00,
2013-05-28 06:46:00,69.7,67.0,29.68,ENE,77,1.2,1.2,90,0.00,,,0.00,TxWx,2013-05-28 11:46:00,
2013-05-28 06:51:00,69.8,67.0,29.68,ENE,77,0.6,1.9,90,0.00,,,0.00,TxWx,2013-05-28 11:51:00,
2013-05-28 06:57:00,69.9,67.0,29.68,East,100,1.2,1.2,90,0.00,,,0.00,TxWx,2013-05-28 11:57:00,
2013-05-28 07:02:00,70.0,67.0,29.68,South,190,1.2,1.9,90,0.00,,,0.00,TxWx,2013-05-28 12:02:00,
2013-05-28 07:08:00,70.0,67.0,29.68,East,100,0.6,2.5,90,0.00,,,0.00,TxWx,2013-05-28 12:08:00,
2013-05-28 07:13:00,70.1,67.0,29.68,ENE,77,0.0,0.6,90,0.00,,,0.00,TxWx,2013-05-28 12:13:00,
2013-05-28 07:18:00,70.2,67.0,29.68,NNE,32,0.6,1.2,90,0.00,,,0.00,TxWx,2013-05-28 12:18:00,
2013-05-28 07:24:00,70.2,67.0,29.68,NNW,347,0.0,0.6,90,0.00,,,0.00,TxWx,2013-05-28 12:24:00,
2013-05-28 07:29:00,70.2,67.0,29.68,NE,55,0.0,0.6,90,0.00,,,0.00,TxWx,2013-05-28 12:29:00,
2013-05-28 07:34:00,70.3,67.0,29.68,WSW,257,1.2,1.2,90,0.00,,,0.00,TxWx,2013-05-28 12:34:00,
2013-05-28 07:40:00,70.3,67.0,29.68,WNW,302,1.2,2.5,90,0.00,,,0.00,TxWx,2013-05-28 12:40:00,
2013-05-28 07:45:00,70.4,67.0,29.68,SW,235,0.6,0.6,90,0.00,,,0.00,TxWx,2013-05-28 12:45:00,
2013-05-28 07:50:00,70.5,67.0,29.68,East,100,1.2,3.7,90,0.00,,,0.00,TxWx,2013-05-28 12:50:00,
2013-05-28 07:55:00,70.6,68.0,29.68,WNW,302,0.6,3.7,90,0.00,,,0.00,TxWx,2013-05-28 12:55:00,
2013-05-28 08:01:00,70.8,68.0,29.69,North,10,0.6,2.5,90,0.00,,,0.00,TxWx,2013-05-28 13:01:00,
2013-05-28 08:06:00,71.0,68.0,29.68,NNE,32,0.6,1.2,90,0.00,,,0.00,TxWx,2013-05-28 13:06:00,
2013-05-28 08:12:00,71.1,68.0,29.69,SSW,212,1.2,1.9,90,0.00,,,0.00,TxWx,2013-05-28 13:12:00,
2013-05-28 08:17:00,71.2,68.0,29.69,WNW,302,2.5,4.3,90,0.00,,,0.00,TxWx,2013-05-28 13:17:00,
2013-05-28 08:23:00,71.5,67.0,29.69,WSW,257,2.5,4.3,89,0.00,,,0.00,TxWx,2013-05-28 13:23:00,
2013-05-28 08:28:00,71.7,68.0,29.69,South,190,2.5,6.2,88,0.00,,,0.00,TxWx,2013-05-28 13:28:00,
2013-05-28 08:33:00,71.9,68.0,29.69,WSW,257,1.9,3.1,88,0.00,,,0.00,TxWx,2013-05-28 13:33:00,
2013-05-28 08:38:00,72.0,68.0,29.69,WSW,257,1.9,2.5,88,0.00,,,0.00,TxWx,2013-05-28 13:38:00,
2013-05-28 08:44:00,72.2,68.0,29.69,West,280,1.9,3.7,88,0.00,,,0.00,TxWx,2013-05-28 13:44:00,
2013-05-28 08:50:00,72.3,68.0,29.69,West,280,3.1,3.1,88,0.00,,,0.00,TxWx,2013-05-28 13:50:00,
2013-05-28 08:55:00,72.3,68.0,29.69,WNW,302,1.2,1.9,88,0.00,,,0.00,TxWx,2013-05-28 13:55:00,
2013-05-28 09:00:00,72.5,68.0,29.69,North,10,0.6,3.7,88,0.00,,,0.00,TxWx,2013-05-28 14:00:00,
2013-05-28 09:05:00,72.5,69.0,29.68,NNE,32,1.2,2.5,88,0.00,,,0.00,TxWx,2013-05-28 14:05:00,
2013-05-28 09:11:00,72.6,69.0,29.68,NW,325,1.2,3.7,87,0.00,,,0.00,TxWx,2013-05-28 14:11:00,
2013-05-28 09:16:00,72.7,69.0,29.68,WSW,257,2.5,6.8,88,0.00,,,0.00,TxWx,2013-05-28 14:16:00,
2013-05-28 09:21:00,72.8,69.0,29.68,NW,325,2.5,3.7,88,0.00,,,0.00,TxWx,2013-05-28 14:21:00,
2013-05-28 09:26:00,72.9,69.0,29.68,WSW,257,3.1,3.1,88,0.00,,,0.00,TxWx,2013-05-28 14:26:00,
2013-05-28 09:31:00,73.0,69.0,29.68,SW,235,1.9,3.1,88,0.00,,,0.00,TxWx,2013-05-28 14:31:00,
2013-05-28 09:37:00,73.1,69.0,29.68,South,190,5.6,6.2,87,0.00,,,0.00,TxWx,2013-05-28 14:37:00,
2013-05-28 09:42:00,73.3,69.0,29.68,WSW,257,3.7,5.0,87,0.00,,,0.00,TxWx,2013-05-28 14:42:00,
2013-05-28 09:48:00,73.4,69.0,29.67,West,280,2.5,6.2,87,0.00,,,0.00,TxWx,2013-05-28 14:48:00,
2013-05-28 09:53:00,73.5,70.0,29.67,WSW,257,1.9,2.5,88,0.00,,,0.00,TxWx,2013-05-28 14:53:00,
2013-05-28 09:58:00,73.6,70.0,29.67,East,100,1.2,8.7,87,0.00,,,0.00,TxWx,2013-05-28 14:58:00,
2013-05-28 10:03:00,73.9,70.0,29.67,NE,55,3.7,7.4,87,0.00,,,0.00,TxWx,2013-05-28 15:03:00,
2013-05-28 10:09:00,74.3,70.0,29.67,SE,145,3.7,7.4,87,0.00,,,0.00,TxWx,2013-05-28 15:09:00,
2013-05-28 10:14:00,74.6,71.0,29.66,North,10,1.2,1.9,86,0.00,,,0.00,TxWx,2013-05-28 15:14:00,
2013-05-28 10:19:00,74.8,70.0,29.66,South,190,3.7,4.3,86,0.00,,,0.00,TxWx,2013-05-28 15:19:00,
2013-05-28 10:25:00,75.0,70.0,29.66,WSW,257,5.6,5.6,86,0.00,,,0.00,TxWx,2013-05-28 15:25:00,
2013-05-28 10:30:00,75.0,70.0,29.66,South,190,5.6,6.2,86,0.00,,,0.00,TxWx,2013-05-28 15:30:00,
2013-05-28 10:35:00,75.1,71.0,29.66,SW,235,6.8,8.7,86,0.00,,,0.00,TxWx,2013-05-28 15:35:00,
2013-05-28 10:41:00,75.2,70.0,29.66,SSE,167,1.2,6.8,85,0.00,,,0.00,TxWx,2013-05-28 15:41:00,
2013-05-28 10:46:00,75.0,70.0,29.66,WNW,302,3.1,9.3,84,0.00,,,0.00,TxWx,2013-05-28 15:46:00,
2013-05-28 10:51:00,74.7,70.0,29.66,WSW,257,6.2,9.3,85,0.00,,,0.00,TxWx,2013-05-28 15:51:00,
2013-05-28 10:56:00,74.8,70.0,29.66,West,280,2.5,3.7,85,0.00,,,0.00,TxWx,2013-05-28 15:56:00,
2013-05-28 11:02:00,74.7,70.0,29.66,West,280,3.1,6.2,86,0.00,,,0.00,TxWx,2013-05-28 16:02:00,
2013-05-28 11:08:00,74.9,71.0,29.65,South,190,1.9,8.7,86,0.00,,,0.00,TxWx,2013-05-28 16:08:00,
2013-05-28 11:13:00,75.4,71.0,29.65,SSE,167,2.5,10.5,87,0.00,,,0.00,TxWx,2013-05-28 16:13:00,
2013-05-28 11:19:00,75.8,71.0,29.65,South,190,1.2,3.1,86,0.00,,,0.00,TxWx,2013-05-28 16:19:00,
2013-05-28 11:24:00,76.0,71.0,29.66,SSW,212,4.3,6.8,85,0.00,,,0.00,TxWx,2013-05-28 16:24:00,
2013-05-28 11:29:00,76.2,71.0,29.65,East,100,1.9,5.0,85,0.00,,,0.00,TxWx,2013-05-28 16:29:00,
2013-05-28 11:34:00,76.1,71.0,29.66,South,190,5.0,6.2,84,0.00,,,0.00,TxWx,2013-05-28 16:34:00,
2013-05-28 11:40:00,76.3,71.0,29.66,NNE,32,1.2,4.3,85,0.00,,,0.00,TxWx,2013-05-28 16:40:00,
2013-05-28 11:45:00,76.3,71.0,29.66,SSE,167,1.9,6.8,85,0.00,,,0.00,TxWx,2013-05-28 16:45:00,
2013-05-28 11:51:00,76.2,71.0,29.66,East,100,2.5,6.2,84,0.00,,,0.00,TxWx,2013-05-28 16:51:00,
2013-05-28 11:56:00,75.8,71.0,29.66,SSW,212,4.3,4.3,84,0.00,,,0.00,TxWx,2013-05-28 16:56:00,
2013-05-28 12:01:00,75.4,70.0,29.67,SSW,212,2.5,3.7,85,0.00,,,0.00,TxWx,2013-05-28 17:01:00,
2013-05-28 12:07:00,75.0,71.0,29.67,SW,235,3.7,3.7,86,0.00,,,0.00,TxWx,2013-05-28 17:07:00,
2013-05-28 12:12:00,74.8,71.0,29.67,WSW,257,2.5,2.5,87,0.00,,,0.00,TxWx,2013-05-28 17:12:00,
2013-05-28 12:17:00,74.6,71.0,29.68,West,280,3.1,4.3,87,0.00,,,0.00,TxWx,2013-05-28 17:17:00,
2013-05-28 12:22:00,74.4,70.0,29.68,SW,235,2.5,4.3,87,0.00,,,0.00,TxWx,2013-05-28 17:22:00,
2013-05-28 12:27:00,74.2,70.0,29.68,West,280,3.1,5.6,88,0.00,,,0.00,TxWx,2013-05-28 17:27:00,
2013-05-28 12:33:00,74.2,70.0,29.68,NNW,347,0.6,1.9,88,0.00,,,0.00,TxWx,2013-05-28 17:33:00,
2013-05-28 12:38:00,74.0,70.0,29.68,SW,235,3.1,6.8,88,0.00,,,0.00,TxWx,2013-05-28 17:38:00,
2013-05-28 12:43:00,73.9,70.0,29.68,SSW,212,1.9,7.4,88,0.00,,,0.00,TxWx,2013-05-28 17:43:00,
2013-05-28 12:49:00,73.8,70.0,29.66,NNW,347,0.6,4.3,88,0.00,,,0.00,TxWx,2013-05-28 17:49:00,
2013-05-28 12:54:00,73.7,70.0,29.66,WNW,302,1.9,3.1,89,0.00,,,0.00,TxWx,2013-05-28 17:54:00,
2013-05-28 13:00:00,73.5,69.0,29.66,WSW,257,3.7,6.8,89,0.00,,,0.00,TxWx,2013-05-28 18:00:00,
2013-05-28 13:05:00,73.3,69.0,29.67,South,190,1.2,11.1,89,0.00,,,0.00,TxWx,2013-05-28 18:05:00,
2013-05-28 13:10:00,73.2,69.0,29.67,WSW,257,7.4,9.3,89,0.00,,,0.00,TxWx,2013-05-28 18:10:00,
2013-05-28 13:15:00,73.0,70.0,29.66,SSW,212,3.1,5.0,89,0.00,,,0.00,TxWx,2013-05-28 18:15:00,
2013-05-28 13:21:00,72.9,70.0,29.66,SW,235,3.7,4.3,89,0.00,,,0.00,TxWx,2013-05-28 18:21:00,
2013-05-28 13:26:00,72.8,70.0,29.66,West,280,1.9,3.1,89,0.00,,,0.00,TxWx,2013-05-28 18:26:00,
2013-05-28 13:32:00,72.6,70.0,29.67,SSW,212,4.3,4.3,90,0.00,,,0.00,TxWx,2013-05-28 18:32:00,
2013-05-28 13:37:00,72.6,70.0,29.68,WSW,257,1.9,5.6,90,0.00,,,0.00,TxWx,2013-05-28 18:37:00,
2013-05-28 13:42:00,72.5,70.0,29.67,SW,235,3.1,5.0,90,0.00,,,0.00,TxWx,2013-05-28 18:42:00,
2013-05-28 13:48:00,72.4,69.0,29.68,South,190,2.5,6.2,90,0.00,,,0.00,TxWx,2013-05-28 18:48:00,
2013-05-28 13:53:00,72.4,69.0,29.67,West,280,1.2,5.0,90,0.00,,,0.00,TxWx,2013-05-28 18:53:00,
2013-05-28 13:58:00,72.3,69.0,29.68,WSW,257,2.5,3.7,90,0.00,,,0.00,TxWx,2013-05-28 18:58:00,
2013-05-28 14:04:00,72.3,69.0,29.67,West,280,1.9,3.1,91,0.00,,,0.00,TxWx,2013-05-28 19:04:00,
2013-05-28 14:09:00,72.1,69.0,29.68,SW,235,1.2,3.7,91,0.00,,,0.01,TxWx,2013-05-28 19:09:00,
2013-05-28 14:15:00,71.7,70.0,29.68,WSW,257,1.2,2.5,92,0.60,,,0.03,TxWx,2013-05-28 19:15:00,
2013-05-28 14:20:00,71.6,70.0,29.68,WNW,302,1.9,5.0,93,0.60,,,0.04,TxWx,2013-05-28 19:20:00,
2013-05-28 14:25:00,71.4,69.0,29.67,SE,145,2.5,4.3,94,0.60,,,0.04,TxWx,2013-05-28 19:25:00,
2013-05-28 14:31:00,71.3,69.0,29.67,ESE,122,0.6,2.5,95,0.60,,,0.04,TxWx,2013-05-28 19:31:00,
2013-05-28 14:36:00,71.2,69.0,29.68,West,280,1.2,2.5,95,0.00,,,0.04,TxWx,2013-05-28 19:36:00,
2013-05-28 14:41:00,71.2,70.0,29.67,East,100,0.6,0.6,96,0.00,,,0.04,TxWx,2013-05-28 19:41:00,
2013-05-28 14:46:00,71.1,70.0,29.68,ENE,77,0.0,2.5,96,0.00,,,0.04,TxWx,2013-05-28 19:46:00,
2013-05-28 14:52:00,71.2,70.0,29.68,East,100,3.7,3.7,97,0.00,,,0.04,TxWx,2013-05-28 19:52:00,
2013-05-28 14:57:00,71.3,70.0,29.68,WSW,257,1.9,1.9,97,0.00,,,0.04,TxWx,2013-05-28 19:57:00,
2013-05-28 15:03:00,71.5,70.0,29.68,NE,55,0.6,1.2,97,0.60,,,0.05,TxWx,2013-05-28 20:03:00,
2013-05-28 15:08:00,71.8,71.0,29.68,NNE,32,0.6,1.2,98,0.60,,,0.05,TxWx,2013-05-28 20:08:00,
2013-05-28 15:14:00,71.9,71.0,29.68,West,280,0.6,1.2,98,0.00,,,0.05,TxWx,2013-05-28 20:14:00,
2013-05-28 15:19:00,72.1,71.0,29.68,SSW,212,3.7,4.3,98,0.00,,,0.05,TxWx,2013-05-28 20:19:00,
2013-05-28 15:25:00,72.2,71.0,29.68,East,100,0.6,1.2,98,0.00,,,0.05,TxWx,2013-05-28 20:25:00,
2013-05-28 15:30:00,72.6,72.0,29.68,SSE,167,0.6,1.2,98,0.00,,,0.05,TxWx,2013-05-28 20:30:00,
2013-05-28 15:35:00,72.9,72.0,29.68,NNE,32,0.6,1.9,98,0.00,,,0.05,TxWx,2013-05-28 20:35:00,
2013-05-28 15:41:00,73.2,72.0,29.68,NE,55,1.2,8.0,98,0.00,,,0.05,TxWx,2013-05-28 20:41:00,
2013-05-28 15:46:00,73.5,73.0,29.68,SSW,212,2.5,5.0,98,0.00,,,0.05,TxWx,2013-05-28 20:46:00,
2013-05-28 15:52:00,73.6,73.0,29.68,ENE,77,1.2,5.0,97,0.00,,,0.05,TxWx,2013-05-28 20:52:00,
2013-05-28 15:58:00,74.0,73.0,29.68,South,190,5.0,5.0,96,0.00,,,0.05,TxWx,2013-05-28 20:58:00,
2013-05-28 16:03:00,74.1,72.0,29.68,SW,235,1.2,5.0,95,0.00,,,0.05,TxWx,2013-05-28 21:03:00,
2013-05-28 16:08:00,74.5,73.0,29.68,SSE,167,3.1,3.7,95,0.00,,,0.05,TxWx,2013-05-28 21:08:00,
2013-05-28 16:13:00,74.4,72.0,29.68,SSW,212,1.2,2.5,94,0.00,,,0.05,TxWx,2013-05-28 21:13:00,
2013-05-28 16:19:00,74.4,72.0,29.68,NNE,32,3.7,8.7,92,0.00,,,0.05,TxWx,2013-05-28 21:19:00,
2013-05-28 16:24:00,74.4,71.0,29.68,East,100,2.5,5.0,92,0.00,,,0.05,TxWx,2013-05-28 21:24:00,
2013-05-28 16:29:00,74.3,71.0,29.68,South,190,4.3,5.6,91,0.00,,,0.05,TxWx,2013-05-28 21:29:00,
2013-05-28 16:35:00,74.1,71.0,29.67,South,190,3.7,6.2,91,0.00,,,0.05,TxWx,2013-05-28 21:35:00,
2013-05-28 16:40:00,74.2,71.0,29.67,SW,235,5.6,5.6,91,0.00,,,0.05,TxWx,2013-05-28 21:40:00,
2013-05-28 16:46:00,74.3,71.0,29.66,SW,235,9.3,9.3,91,0.00,,,0.05,TxWx,2013-05-28 21:46:00,
2013-05-28 16:51:00,74.4,71.0,29.66,ESE,122,3.1,3.7,90,0.00,,,0.05,TxWx,2013-05-28 21:51:00,
2013-05-28 16:57:00,74.6,72.0,29.66,South,190,2.5,10.5,89,0.00,,,0.05,TxWx,2013-05-28 21:57:00,
2013-05-28 17:02:00,74.8,72.0,29.66,SSE,167,1.9,6.8,90,0.00,,,0.05,TxWx,2013-05-28 22:02:00,
2013-05-28 17:08:00,74.6,71.0,29.66,WNW,302,2.5,3.7,88,0.00,,,0.05,TxWx,2013-05-28 22:08:00,
2013-05-28 17:13:00,74.8,72.0,29.66,SSW,212,2.5,3.7,89,0.00,,,0.05,TxWx,2013-05-28 22:13:00,
2013-05-28 17:18:00,74.6,71.0,29.66,SW,235,1.9,5.6,88,0.00,,,0.05,TxWx,2013-05-28 22:18:00,
2013-05-28 17:23:00,74.6,71.0,29.66,NE,55,0.6,4.3,88,0.00,,,0.05,TxWx,2013-05-28 22:23:00,
2013-05-28 17:28:00,74.5,71.0,29.67,WSW,257,3.1,4.3,88,0.00,,,0.05,TxWx,2013-05-28 22:28:00,
2013-05-28 17:33:00,74.2,70.0,29.68,SSW,212,2.5,4.3,88,0.00,,,0.05,TxWx,2013-05-28 22:33:00,
2013-05-28 17:39:00,74.1,70.0,29.68,WSW,257,1.2,4.3,89,0.00,,,0.05,TxWx,2013-05-28 22:39:00,
2013-05-28 17:45:00,74.1,70.0,29.69,NE,55,0.6,1.9,89,0.00,,,0.05,TxWx,2013-05-28 22:45:00,
2013-05-28 17:50:00,74.0,71.0,29.68,NNE,32,0.0,1.9,89,0.00,,,0.05,TxWx,2013-05-28 22:50:00,
2013-05-28 17:56:00,73.9,70.0,29.68,SE,145,1.2,6.8,89,0.00,,,0.05,TxWx,2013-05-28 22:56:00,
2013-05-28 18:01:00,73.8,71.0,29.69,WNW,302,0.6,5.0,89,0.00,,,0.05,TxWx,2013-05-28 23:01:00,
2013-05-28 18:06:00,73.8,71.0,29.68,East,100,3.7,3.7,89,0.00,,,0.05,TxWx,2013-05-28 23:06:00,
2013-05-28 18:11:00,73.7,71.0,29.67,NW,325,1.9,2.5,90,0.00,,,0.05,TxWx,2013-05-28 23:11:00,
2013-05-28 18:17:00,73.7,71.0,29.66,ESE,122,0.6,1.9,90,0.00,,,0.05,TxWx,2013-05-28 23:17:00,
2013-05-28 18:22:00,73.6,71.0,29.65,ENE,77,1.2,5.0,90,0.00,,,0.05,TxWx,2013-05-28 23:22:00,
2013-05-28 18:27:00,73.6,71.0,29.66,SSW,212,1.9,3.1,90,0.00,,,0.05,TxWx,2013-05-28 23:27:00,
2013-05-28 18:33:00,73.4,70.0,29.65,ENE,77,1.2,4.3,90,0.00,,,0.05,TxWx,2013-05-28 23:33:00,
2013-05-28 18:38:00,73.4,70.0,29.64,South,190,1.9,3.1,90,0.00,,,0.05,TxWx,2013-05-28 23:38:00,
2013-05-28 18:43:00,73.4,70.0,29.64,South,190,3.7,5.0,90,0.00,,,0.05,TxWx,2013-05-28 23:43:00,
2013-05-28 18:49:00,73.3,70.0,29.65,South,190,4.3,5.0,89,0.00,,,0.05,TxWx,2013-05-28 23:49:00,
2013-05-28 18:54:00,73.5,69.0,29.65,SSE,167,3.1,4.3,89,0.00,,,0.05,TxWx,2013-05-28 23:54:00,
2013-05-28 18:59:00,73.6,70.0,29.67,SW,235,3.7,5.6,88,0.00,,,0.05,TxWx,2013-05-28 23:59:00,
2013-05-28 19:04:00,73.8,70.0,29.68,SSE,167,3.1,8.0,88,0.00,,,0.05,TxWx,2013-05-29 00:04:00,
2013-05-28 19:10:00,73.6,70.0,29.68,WNW,302,1.9,6.2,87,0.00,,,0.05,TxWx,2013-05-29 00:10:00,
2013-05-28 19:16:00,73.5,70.0,29.68,NNE,32,0.6,5.0,87,0.00,,,0.05,TxWx,2013-05-29 00:16:00,
2013-05-28 19:21:00,73.4,69.0,29.68,East,100,3.1,5.0,87,0.00,,,0.05,TxWx,2013-05-29 00:21:00,
2013-05-28 19:26:00,73.4,69.0,29.67,East,100,1.9,3.7,87,0.00,,,0.05,TxWx,2013-05-29 00:26:00,
2013-05-28 19:31:00,73.3,69.0,29.67,NE,55,2.5,3.1,88,0.00,,,0.05,TxWx,2013-05-29 00:31:00,
2013-05-28 19:36:00,73.2,69.0,29.67,ESE,122,0.6,3.7,87,0.00,,,0.05,TxWx,2013-05-29 00:36:00,
2013-05-28 19:42:00,73.1,69.0,29.67,WSW,257,3.7,5.6,87,0.00,,,0.05,TxWx,2013-05-29 00:42:00,
2013-05-28 19:48:00,73.1,69.0,29.68,SSE,167,1.2,3.1,86,0.00,,,0.05,TxWx,2013-05-29 00:48:00,
2013-05-28 19:53:00,73.1,69.0,29.68,North,10,0.0,1.9,86,0.00,,,0.05,TxWx,2013-05-29 00:53:00,
2013-05-28 19:59:00,73.0,68.0,29.69,NW,325,0.6,8.0,86,0.00,,,0.05,TxWx,2013-05-29 00:59:00,
2013-05-28 20:04:00,73.0,68.0,29.69,South,190,2.5,5.0,86,0.00,,,0.05,TxWx,2013-05-29 01:04:00,
2013-05-28 20:09:00,73.0,68.0,29.70,NW,325,1.2,1.9,86,0.00,,,0.05,TxWx,2013-05-29 01:09:00,
2013-05-28 20:15:00,73.0,68.0,29.70,ESE,122,1.9,5.6,85,0.00,,,0.05,TxWx,2013-05-29 01:15:00,
2013-05-28 20:20:00,73.0,68.0,29.71,SSE,167,4.3,4.3,86,0.00,,,0.05,TxWx,2013-05-29 01:20:00,
2013-05-28 20:25:00,72.8,68.0,29.70,WSW,257,1.2,3.1,86,0.00,,,0.05,TxWx,2013-05-29 01:25:00,
2013-05-28 20:30:00,72.8,68.0,29.71,South,190,1.2,1.2,86,0.00,,,0.05,TxWx,2013-05-29 01:30:00,
2013-05-28 20:36:00,72.8,68.0,29.71,North,10,1.9,4.3,86,0.00,,,0.05,TxWx,2013-05-29 01:36:00,
2013-05-28 20:41:00,72.8,68.0,29.71,SE,145,1.2,2.5,86,0.00,,,0.05,TxWx,2013-05-29 01:41:00,
2013-05-28 20:46:00,72.8,69.0,29.72,South,190,0.6,1.2,86,0.00,,,0.05,TxWx,2013-05-29 01:46:00,
2013-05-28 20:51:00,72.7,69.0,29.72,SSE,167,1.9,2.5,86,0.00,,,0.05,TxWx,2013-05-29 01:51:00,
2013-05-28 20:57:00,72.7,69.0,29.72,North,10,0.6,1.9,86,0.00,,,0.05,TxWx,2013-05-29 01:57:00,
2013-05-28 21:02:00,72.6,69.0,29.72,ESE,122,0.6,1.9,87,0.00,,,0.05,TxWx,2013-05-29 02:02:00,
2013-05-28 21:08:00,72.5,69.0,29.73,East,100,0.6,1.2,87,0.00,,,0.05,TxWx,2013-05-29 02:08:00,
2013-05-28 21:14:00,72.3,68.0,29.73,WSW,257,3.1,4.3,88,0.00,,,0.05,TxWx,2013-05-29 02:14:00,
2013-05-28 21:19:00,72.1,68.0,29.73,North,10,0.0,2.5,88,0.00,,,0.05,TxWx,2013-05-29 02:19:00,
2013-05-28 21:24:00,72.0,68.0,29.73,South,190,1.9,6.8,89,0.00,,,0.05,TxWx,2013-05-29 02:24:00,
2013-05-28 21:30:00,71.8,68.0,29.73,West,280,1.2,3.1,89,0.00,,,0.05,TxWx,2013-05-29 02:30:00,
2013-05-28 21:35:00,71.8,69.0,29.73,East,100,0.6,2.5,89,0.00,,,0.05,TxWx,2013-05-29 02:35:00,
2013-05-28 21:41:00,71.7,69.0,29.73,SSW,212,1.9,1.9,90,0.00,,,0.05,TxWx,2013-05-29 02:41:00,
2013-05-28 21:46:00,71.5,69.0,29.73,SW,235,0.6,3.7,90,0.00,,,0.05,TxWx,2013-05-29 02:46:00,
2013-05-28 21:51:00,71.5,68.0,29.74,NW,325,0.6,3.1,91,0.00,,,0.05,TxWx,2013-05-29 02:51:00,
2013-05-28 21:57:00,71.4,68.0,29.74,ENE,77,0.6,1.2,91,0.00,,,0.05,TxWx,2013-05-29 02:57:00,
2013-05-28 22:02:00,71.3,68.0,29.75,South,190,1.2,1.9,91,0.00,,,0.05,TxWx,2013-05-29 03:02:00,
2013-05-28 22:07:00,71.3,68.0,29.75,East,100,0.6,1.9,91,0.00,,,0.05,TxWx,2013-05-29 03:07:00,
2013-05-28 22:12:00,71.3,68.0,29.75,WSW,257,2.5,5.0,91,0.00,,,0.05,TxWx,2013-05-29 03:12:00,
2013-05-28 22:18:00,71.2,68.0,29.75,SSE,167,1.9,2.5,91,0.00,,,0.05,TxWx,2013-05-29 03:18:00,
2013-05-28 22:23:00,71.2,68.0,29.75,SW,235,3.7,3.7,91,0.00,,,0.05,TxWx,2013-05-29 03:23:00,
2013-05-28 22:28:00,71.2,68.0,29.75,NNE,32,0.0,0.6,92,0.00,,,0.05,TxWx,2013-05-29 03:28:00,
2013-05-28 22:34:00,71.2,68.0,29.76,ENE,77,1.2,1.2,92,0.00,,,0.05,TxWx,2013-05-29 03:34:00,
2013-05-28 22:39:00,71.2,68.0,29.76,East,100,1.2,1.9,92,0.00,,,0.05,TxWx,2013-05-29 03:39:00,
2013-05-28 22:44:00,71.2,69.0,29.76,NNE,32,0.0,2.5,92,0.00,,,0.05,TxWx,2013-05-29 03:44:00,
2013-05-28 22:50:00,71.2,69.0,29.76,SE,145,1.2,2.5,92,0.00,,,0.05,TxWx,2013-05-29 03:50:00,
2013-05-28 22:55:00,71.2,68.0,29.76,ENE,77,1.2,1.2,92,0.00,,,0.05,TxWx,2013-05-29 03:55:00,
2013-05-28 23:01:00,71.1,68.0,29.76,NNE,32,0.0,1.2,92,0.00,,,0.05,TxWx,2013-05-29 04:01:00,
2013-05-28 23:03:00,71.1,68.0,29.76,North,10,0.0,1.2,92,0.00,,,0.05,TxWx,2013-05-29 04:03:00,
2013-05-28 23:05:00,71.1,69.0,29.76,WNW,302,0.6,3.7,92,0.00,,,0.05,TxWx,2013-05-29 04:05:00,
2013-05-28 23:08:00,71.1,69.0,29.76,NNE,32,0.0,0.6,92,0.00,,,0.05,TxWx,2013-05-29 04:08:00,
2013-05-28 23:13:00,71.0,69.0,29.76,South,190,0.0,0.6,92,0.00,,,0.05,TxWx,2013-05-29 04:13:00,
2013-05-28 23:16:00,71.0,69.0,29.76,ENE,77,0.6,2.5,92,0.00,,,0.05,TxWx,2013-05-29 04:16:00,
2013-05-28 23:21:00,71.0,69.0,29.76,NNE,32,0.0,0.6,92,0.00,,,0.05,TxWx,2013-05-29 04:21:00,
2013-05-28 23:26:00,71.0,69.0,29.76,ESE,122,1.9,1.9,92,0.00,,,0.05,TxWx,2013-05-29 04:26:00,
2013-05-28 23:32:00,70.9,69.0,29.76,ENE,77,1.2,1.9,92,0.00,,,0.05,TxWx,2013-05-29 04:32:00,
2013-05-28 23:37:00,70.9,69.0,29.76,SSE,167,1.9,3.1,93,0.00,,,0.05,TxWx,2013-05-29 04:37:00,
2013-05-28 23:42:00,70.9,69.0,29.77,NE,55,1.2,1.9,93,0.00,,,0.05,TxWx,2013-05-29 04:42:00,
2013-05-28 23:48:00,71.0,69.0,29.77,ENE,77,1.2,2.5,92,0.00,,,0.05,TxWx,2013-05-29 04:48:00,
2013-05-28 23:53:00,71.0,69.0,29.77,NE,55,0.0,1.2,92,0.00,,,0.05,TxWx,2013-05-29 04:53:00,
2013-05-28 23:59:00,71.1,69.0,29.77,East,100,1.9,2.5,92,0.00,,,0.05,TxWx,2013-05-29 04:59:00,